Regional Weather Roundup
Issued by NWS

Home | Current Version | Previous Version | Graphics & Text | Print | Product List | Glossary On
Versions: 1 2 3 4 5 6 7 8 9 10 11 12 13 14 15 16 17 18 19 20 21 22 23 24 25 26 27 28 29 30 31 32 33 34 35 36 37 38 39 40 41 42 43 44 45 46 47 48 49 50
000
ASUS43 KDMX 310707
RWRIA

WEATHER ROUNDUP FOR IOWA
NATIONAL WEATHER SERVICE DES MOINES IA
200 AM CDT FRI JUL 31 2015

NOTE: "FAIR" INDICATES FEW OR NO CLOUDS BELOW 12,000 FEET WITH NO
SIGNIFICANT WEATHER AND/OR OBSTRUCTIONS TO VISIBILITY.

* - THESE STATIONS ARE NOT NWS STATIONS...THUS NOT UNDER NWS
QUALITY CONTROL.  THEY ALSO DO NOT REPORT WEATHER SUCH
AS PRECIPITATION OR FOG.

IAZ001>003-012>014-020>022-031>034-043>046-310800-
   NORTHWEST IOWA

CITY           SKY/WX    TMP DP  RH WIND       PRES   REMARKS
CARROLL *      CLEAR     66  64  94 CALM      30.13S
CHEROKEE *     CLEAR     66  66 100 CALM      30.12S
DENISON *      FOG       66  64  94 CALM      30.12F VSB 1/4
LE MARS *      CLEAR     64  64 100 CALM      30.13S
ORANGE CITY *  CLEAR     66  63  88 CALM      30.13R
SHELDON *      CLEAR     59  59 100 N5        30.12S
SIOUX CITY     PTCLDY    70  65  84 S3        30.13R
SPENCER        CLEAR     62  59  90 W3        30.12S
STORM LAKE *   CLEAR     66  63  88 SW8       30.14S
$$

IAZ055>058-069>071-079>083-090>094-310800-
   SOUTHWEST IOWA

CITY           SKY/WX    TMP DP  RH WIND       PRES   REMARKS
ATLANTIC *     PTCLDY    66  66 100 CALM      30.15S
AUDUBON *      CLEAR     64  63  94 CALM      30.16F
COUNCIL BLFS * MOCLDY    72  64  78 W5        30.16R
CRESTON *      PTCLDY    68  64  88 W5        30.18R
HARLAN  *      PTCLDY    66  66 100 CALM      30.18S
LAMONI         CLEAR     71  63  75 SW7       30.15S
RED OAK *      PTCLDY    66  66 100 CALM      30.14F
SHENANDOAH *     N/A     66  64  94 CALM      30.16S
$$

IAZ047>049-059>061-072>074-084-310800-
   CENTRAL IOWA

CITY           SKY/WX    TMP DP  RH WIND       PRES   REMARKS
AMES           CLEAR     66  64  93 SW8       30.11S
ANKENY *       CLEAR     66  66 100 CALM      30.12S
CHARITON *     CLEAR     70  64  83 W7        30.14S
DES MOINES     PTCLDY    71  65  81 W3        30.12S
GRINNELL*      CLEAR     66  63  88 W5        30.12S
KNOXVILLE *    CLEAR     68  64  88 SW7       30.12R
MARSHALLTOWN   CLEAR     66  64  93 W6        30.10S
PELLA *        CLEAR     70  68  94 W5        30.13S
PERRY *          N/A     66  66 100 W3        30.13S
$$

IAZ004>006-015-016-023>025-035-036-310800-
   NORTH CENTRAL IOWA

CITY           SKY/WX    TMP DP  RH WIND       PRES   REMARKS
ALGONA *       CLEAR     68  64  88 W7        30.10S
CLARION *      CLEAR     64  63  94 SW5       30.10S
ESTHERVILLE    CLEAR     64  61  90 NW7       30.12R
FORT DODGE *   CLEAR     64  61  88 SW5       30.12S
MASON CITY     CLEAR     71  66  84 W9        30.09S
FOREST CITY *  CLEAR     63  63 100 CALM      30.09S
IOWA FALLS *     N/A     68  64  88 SW8       30.10F
$$

IAZ007>011-017>019-026>030-037>042-050>054-066-310800-
   NORTHEAST IOWA

CITY           SKY/WX    TMP DP  RH WIND       PRES   REMARKS
CEDAR RAPIDS   CLEAR     67  66  97 W6        30.08F
CHARLES CITY * CLEAR     66  66 100 SW5       30.07S
CLINTON *      CLEAR     63  63 100 W6        30.10S
DECORAH *      PTCLDY    68  63  83 VRB5      30.04S
DUBUQUE        CLEAR     62  60  93 SW6       30.07F
MONTICELLO *   CLEAR     63  63 100 CALM      30.07F
OELWEIN *        N/A     66  64  94 SW7       30.08F
WATERLOO       CLEAR     69  65  86 W6        30.06F
$$

IAZ064-065-067-068-078-310800-
   EAST CENTRAL IOWA

CITY           SKY/WX    TMP DP  RH WIND       PRES   REMARKS
DAVENPORT      CLEAR     64  63  96 W5        30.09R
IOWA CITY      CLEAR     68  64  87 W5        30.10S
MT. PLEASANT * CLEAR     70  64  83 W5        30.11S
MUSCATINE *    CLEAR     72  64  78 CALM      30.09S
QUAD CITIES    CLEAR     68  64  87 SW3       30.08S
$$

IAZ062-063-075>077-085>089-095>099-310800-
   SOUTHEAST IOWA

CITY           SKY/WX    TMP DP  RH WIND       PRES   REMARKS
BURLINGTON     CLEAR     71  66  84 W5        30.10S
FAIRFIELD *    CLEAR     68  64  88 W5        30.11S
FORT MADISON * CLEAR     70  64  83 W6        30.12S
KEOKUK *       CLEAR     70  66  88 W5        30.11S
OSKALOOSA *      N/A     64  63  94 W3        30.12S
CENTERVILLE *  CLEAR     66  64  94 SW6       30.16S
OTTUMWA        CLEAR     67  65  93 W5        30.11S
WASHINGTON *   CLEAR     66  64  94 W5        30.12S
$$

ABBREVIATIONS USED IN REMARKS
   TC - TEMPERATURES IN CELSIUS
  WCI - WIND CHILL INDEX
   HX - HEAT INDEX
  VSB - VISIBILITY
$$



USA.gov is the U.S. government's official web portal to all federal, state and local government web resources and services.